Location: B?dimalle
(17.1788°N, 80.5377°E)
Time: 16:37:47
(UTC+00:00)

Vanguard 1 - Pass Details

Date: 16 February 2026
Orbit: 653 x 3818 km, 34.2° (Epoch: 9 March)

Event Time Altitude Azimuth Distance (km) Brightness Sun altitude
Rises 12:36:08 0° 290° (WNW) 5,626 15.0 0.1°
Reaches altitude 10° 12:39:34 10° 297° (WNW) 4,997 14.5 -0.7°
Maximum altitude 12:54:52 45° 8° (N) 4,074 13.1 -4.3°
Drops below altitude 10° 13:16:46 10° 76° (ENE) 6,912 13.7 -9.4°
Enters shadow 13:16:47 10° 76° (ENE) 6,916 13.7 -9.4°
